ECHOSTAR 19 (41893 NORAD) Tracking and Keplerian Element Data

This shows tracking and keplerian element data for the satellite.

Feedback or suggestion? Click here.




ElementValue
Catalog41893
NameECHOSTAR 19
Epoch Orbit569
Epoch Day194.46062514
Epoch Year2018
RAAN46.4197
Inclination0.0242
Eccentricity0.0001106
Argument of Perigee59.4201
Mean Anonmoly254.1725
Mean Motion1.00269534
Decay Rate-1.5E-06
L11 41893U 16079A 18194.46062514 -.00000150 00000-0 00000-0 0 9996
L22 41893 0.0242 46.4197 0001106 59.4201 254.1725 1.00269534 5691

Live tracking and technical data element details for ECHOSTAR 19 (NORAD 41893). ECHOSTAR 19 can be tracked NOW for your location showing map with azimuth and elevation plus other details from your city location.

Track the satellite on the map from your city or location and see movement details for azimuth, elevation, latitude, longitude, range, height, and movement on the map or in text.







IsCatalogInMostPopularTable: catalog: 41893, numindb: 89
Update: records affected: 1



GetName: 41893 ECHOSTAR 19

Hit Count: updated at: Sun, 15 Jul 2018 23:05:53 GMT